カタログに戻る

FENGYUN 1C DEB

運用中SSO
NORAD 31890·DEBRIS·🇨🇳 China

打ち上げ May 10, 1999 から Taiyuan Satellite Launch Center

Loading…

次のパス (今後24時間)

TLE

最新Source: Space-Track

元期: Sep 13, 2026, 05:54 UTC

1 31890U 99025CKR 26256.24641772  .00000169  00000-0  11637-3 0  9997
2 31890  98.7151 264.3373 0072282 183.6138 176.4520 14.10242304680216

AllMySatでFENGYUN 1C DEBをリアルタイム追跡

Download on the App Store